Find Starlink 37324

NORAD ID: 68749 Int'l Des: 2026-082 Owner: SPXS Country: US Constellation: starlink operational
LEOCIRCULARRETROGRADE

当前视图

正在加载3D地球...

关于 Starlink 37324

正在加载描述...

即将过境

Passes for default location (London). Set your location on the main map for personalized predictions.

高度历史

Loading altitude history...

两行轨道根数

1 68749U 26082X 26151.50002315 .00080487 00000-0 24735-2 0 9993
2 68749 97.2846 15.2976 0001503 98.9321 306.3078 15.33386744 5975
Epoch: May 31, 2026 • Age: 10 hours

当前状态

高度 486.8 km
速度 7.62 km/s
星下点 -52.72°S, 36.53°W
发射日期 Apr 15, 2026
运行时间 0.1 years
类型 internet

技术详情

分类 Payload
质量 575.00 kg
干质量 530.00 kg
总质量 575.00 kg
长度 0.30 m
直径 4.10 m
跨度 29.00 m
形状 Box + pan
制造商 SPXS
平台类型 Starlink V2MO
阶段状态 In Orbit
所有者/国家 SPXS/US

Most Searched